sat.trackr.live / text

‹ back to catalog

LEMUR-2-DEANANDMAEVE

NORAD 66678 · 2025-276N

PAYLOAD ACTIVE UNKNOWN

§ Identity

Operator
Country
US
Launch date
2025-11-28
Launch site
AFWTR
Launch vehicle
Mass (kg)
RCS (m²)

Purposes: earth_obs

External: N2YO · Heavens-Above · Gunter

§ Orbital elements

Epoch: 2026-05-25T04:50:01.938048Z

Period
94.77 min
Inclination
97.4217°
Eccentricity
0.0007389
Mean motion
15.19393307 rev/d
Perigee alt
502.6 km
Apogee alt
512.8 km
Semi-major
6,885.8 km
B*
3.1065e-4
RAAN
219.0635°
Arg perigee
84.2742°
Mean anomaly
275.9335°
Rev number
2,692

§ Raw data

LEMUR-2-DEANANDMAEVE1 66678U 25276N   26145.20141132  .00006512  00000+0  31065-3 0  99982 66678  97.4217 219.0635 0007389  84.2742 275.9335 15.19393307 26929

JSON: /api/v1/satellites/66678 · /tle

For live sub-satellite position, see the globe view (requires WebGL).

§ Visibility from observer

Set your observer location to see the next 7 days of passes ≥ 10°. The values pass through the URL so the page stays shareable.

No JS? Fill the form by hand. The geolocation button needs JavaScript.

§ Radio — SatNOGS DB

ModeDescriptionDownlinkUplink
GMSK Mode U - Transmitter 401.025 MHz

1 transmitter · refreshed weekly from db.satnogs.org